VOY2112 LIYY-LIEE

Flight info

Callsign VOY2112
Flight time N/A
Altitude 3000
Route EESE1 CAG09
Aircraft C172/L-VGD/A

Departure

Time N/A
Airport LIYY

Arrival

Time 2026-04-29 07:08
Airport Cagliari Elmas Airport (LIEE)
Time Latitude Longitude Altitude Speed Heading
2026-04-29 06:37 39.49970 9.61245 31 ft 0 kts 10°
2026-04-29 06:39 39.49997 9.61276 33 ft 3 kts 121°
2026-04-29 06:39 39.49983 9.61286 31 ft 0 kts 179°
2026-04-29 06:40 39.49798 9.61244 45 ft 50 kts 190°
2026-04-29 06:40 39.49395 9.61165 212 ft 56 kts 188°
2026-04-29 06:40 39.48992 9.61061 354 ft 62 kts 197°
2026-04-29 06:40 39.48715 9.60579 475 ft 67 kts 234°
2026-04-29 06:41 39.48331 9.60230 642 ft 75 kts 213°
2026-04-29 06:41 39.47793 9.60058 770 ft 86 kts 186°
2026-04-29 06:41 39.47169 9.59929 904 ft 95 kts 189°
2026-04-29 06:41 39.46501 9.59789 1038 ft 99 kts 189°
2026-04-29 06:42 39.45813 9.59647 1174 ft 102 kts 189°
2026-04-29 06:42 39.45115 9.59504 1302 ft 104 kts 189°
2026-04-29 06:42 39.44400 9.59358 1431 ft 104 kts 189°
2026-04-29 06:42 39.43683 9.59211 1557 ft 104 kts 189°
2026-04-29 06:43 39.42967 9.59067 1682 ft 104 kts 189°
2026-04-29 06:43 39.42249 9.58922 1809 ft 105 kts 189°
2026-04-29 06:43 39.41525 9.58775 1938 ft 106 kts 189°
2026-04-29 06:43 39.40793 9.58628 2062 ft 107 kts 189°
2026-04-29 06:44 39.40059 9.58478 2185 ft 106 kts 189°
2026-04-29 06:44 39.39339 9.58333 2313 ft 104 kts 189°
2026-04-29 06:44 39.38631 9.58190 2431 ft 103 kts 189°
2026-04-29 06:44 39.37921 9.58047 2558 ft 104 kts 189°
2026-04-29 06:45 39.37198 9.57901 2683 ft 105 kts 189°
2026-04-29 06:45 39.36476 9.57755 2811 ft 105 kts 189°
2026-04-29 06:45 39.35752 9.57609 2934 ft 105 kts 189°
2026-04-29 06:45 39.35021 9.57461 3002 ft 110 kts 189°
2026-04-29 06:46 39.34244 9.57303 3006 ft 116 kts 189°
2026-04-29 06:46 39.33439 9.57141 3012 ft 118 kts 189°
2026-04-29 06:46 39.32621 9.56975 3012 ft 120 kts 189°
2026-04-29 06:46 39.31798 9.56810 3012 ft 119 kts 189°
2026-04-29 06:47 39.30978 9.56644 3009 ft 119 kts 189°
2026-04-29 06:47 39.30171 9.56482 3012 ft 119 kts 189°
2026-04-29 06:47 39.29351 9.56316 3009 ft 119 kts 189°
2026-04-29 06:47 39.28530 9.56151 3012 ft 120 kts 189°
2026-04-29 06:48 39.27701 9.55984 3013 ft 120 kts 189°
2026-04-29 06:48 39.26873 9.55817 3013 ft 120 kts 189°
2026-04-29 06:48 39.26043 9.55650 3013 ft 121 kts 189°
2026-04-29 06:48 39.25217 9.55484 3013 ft 120 kts 189°
2026-04-29 06:49 39.24388 9.55317 3010 ft 121 kts 189°
2026-04-29 06:49 39.23564 9.55152 3011 ft 119 kts 189°
2026-04-29 06:49 39.22739 9.54985 3013 ft 121 kts 189°
2026-04-29 06:49 39.21909 9.54818 3009 ft 120 kts 189°
2026-04-29 06:50 39.21088 9.54653 3012 ft 119 kts 189°
2026-04-29 06:50 39.20262 9.54487 3012 ft 121 kts 189°
2026-04-29 06:50 39.19428 9.54320 3014 ft 122 kts 189°
2026-04-29 06:50 39.18593 9.54152 3010 ft 121 kts 189°
2026-04-29 06:51 39.17767 9.53986 3010 ft 120 kts 189°
2026-04-29 06:51 39.16953 9.53823 3013 ft 120 kts 189°
2026-04-29 06:51 39.16124 9.53656 3009 ft 120 kts 189°
2026-04-29 06:51 39.15300 9.53491 3011 ft 120 kts 189°
2026-04-29 06:52 39.14469 9.53324 3011 ft 121 kts 189°
2026-04-29 06:52 39.13638 9.53158 3011 ft 121 kts 189°
2026-04-29 06:52 39.12804 9.52990 3013 ft 122 kts 189°
2026-04-29 06:52 39.11966 9.52822 3011 ft 121 kts 189°
2026-04-29 06:53 39.11135 9.52655 3011 ft 121 kts 189°
2026-04-29 06:53 39.10307 9.52489 3010 ft 120 kts 189°
2026-04-29 06:53 39.09479 9.52323 3011 ft 120 kts 189°
2026-04-29 06:53 39.08718 9.51945 3000 ft 119 kts 223°
2026-04-29 06:54 39.08420 9.50991 2993 ft 118 kts 272°
2026-04-29 06:54 39.08632 9.49977 2998 ft 118 kts 287°
2026-04-29 06:54 39.08874 9.48969 3000 ft 118 kts 286°
2026-04-29 06:54 39.09095 9.47952 3001 ft 118 kts 284°
2026-04-29 06:55 39.09289 9.46939 3002 ft 118 kts 283°
2026-04-29 06:55 39.09474 9.45907 3002 ft 118 kts 282°
2026-04-29 06:55 39.09654 9.44875 3002 ft 118 kts 282°
2026-04-29 06:55 39.09832 9.43846 3001 ft 115 kts 282°
2026-04-29 06:56 39.10002 9.42857 2998 ft 112 kts 282°
2026-04-29 06:56 39.10167 9.41890 2994 ft 110 kts 282°
2026-04-29 06:56 39.10331 9.40932 2994 ft 109 kts 282°
2026-04-29 06:56 39.10493 9.39978 2995 ft 109 kts 282°
2026-04-29 06:57 39.10656 9.39026 2995 ft 109 kts 282°
2026-04-29 06:57 39.10817 9.38077 2995 ft 109 kts 282°
2026-04-29 06:57 39.10979 9.37125 2994 ft 109 kts 282°
2026-04-29 06:57 39.11141 9.36178 2995 ft 108 kts 282°
2026-04-29 06:58 39.11302 9.35230 2995 ft 109 kts 282°
2026-04-29 06:58 39.11463 9.34280 2996 ft 108 kts 282°
2026-04-29 06:58 39.11625 9.33332 2995 ft 109 kts 282°
2026-04-29 06:58 39.11786 9.32382 2995 ft 109 kts 282°
2026-04-29 06:59 39.11947 9.31434 2995 ft 108 kts 282°
2026-04-29 06:59 39.12107 9.30487 2995 ft 108 kts 282°
2026-04-29 06:59 39.12266 9.29552 2995 ft 108 kts 282°
2026-04-29 06:59 39.12426 9.28605 2995 ft 108 kts 282°
2026-04-29 07:00 39.12587 9.27658 2995 ft 108 kts 282°
2026-04-29 07:00 39.12747 9.26710 2995 ft 108 kts 282°
2026-04-29 07:00 39.12908 9.25762 2995 ft 108 kts 282°
2026-04-29 07:00 39.13068 9.24815 2995 ft 108 kts 282°
2026-04-29 07:01 39.13229 9.23864 2995 ft 108 kts 282°
2026-04-29 07:01 39.13389 9.22916 2995 ft 108 kts 282°
2026-04-29 07:01 39.13549 9.21968 2995 ft 108 kts 282°
2026-04-29 07:01 39.13709 9.21017 2995 ft 109 kts 282°
2026-04-29 07:02 39.13869 9.20069 2995 ft 107 kts 282°
2026-04-29 07:02 39.14020 9.19177 2995 ft 97 kts 282°
2026-04-29 07:02 39.14172 9.18381 2991 ft 89 kts 294°
2026-04-29 07:02 39.14577 9.17831 2995 ft 82 kts 316°
2026-04-29 07:03 39.14980 9.17347 2958 ft 80 kts 314°
2026-04-29 07:03 39.15365 9.16811 2910 ft 80 kts 311°
2026-04-29 07:03 39.15777 9.16263 2280 ft 119 kts 310°
2026-04-29 07:03 39.16268 9.15591 2319 ft 96 kts 315°
2026-04-29 07:04 39.16741 9.15005 2272 ft 93 kts 315°
2026-04-29 07:04 39.17229 9.14441 2224 ft 93 kts 319°
2026-04-29 07:04 39.17728 9.13912 2162 ft 96 kts 320°
2026-04-29 07:04 39.18259 9.13372 2083 ft 98 kts 321°
2026-04-29 07:05 39.18790 9.12825 1966 ft 97 kts 319°
2026-04-29 07:05 39.19284 9.12257 1823 ft 93 kts 317°
2026-04-29 07:05 39.19765 9.11689 1613 ft 95 kts 316°
2026-04-29 07:05 39.20242 9.11088 1356 ft 98 kts 315°
2026-04-29 07:06 39.20747 9.10489 1111 ft 99 kts 319°
2026-04-29 07:06 39.21269 9.09938 938 ft 93 kts 317°
2026-04-29 07:06 39.21716 9.09376 780 ft 88 kts 315°
2026-04-29 07:06 39.22181 9.08868 583 ft 89 kts 319°
2026-04-29 07:07 39.22654 9.08318 403 ft 94 kts 316°
2026-04-29 07:07 39.23129 9.07789 287 ft 85 kts 319°
2026-04-29 07:07 39.23535 9.07308 251 ft 77 kts 316°
2026-04-29 07:07 39.23941 9.06842 150 ft 79 kts 317°
2026-04-29 07:08 39.24343 9.06379 40 ft 74 kts 318°
2026-04-29 07:08 39.24692 9.05972 16 ft 61 kts 317°
2026-04-29 07:08 39.24954 9.05666 14 ft 24 kts 319°
2026-04-29 07:08 39.24983 9.05637 15 ft 10 kts 334°
2026-04-29 07:09 39.25052 9.05641 14 ft 10 kts 32°
2026-04-29 07:09 39.25102 9.05700 14 ft 10 kts 49°
2026-04-29 07:09 39.25134 9.05769 13 ft 8 kts 61°
2026-04-29 07:09 39.25158 9.05831 13 ft 7 kts 60°
2026-04-29 07:10 39.25189 9.05868 13 ft 6 kts
2026-04-29 07:10 39.25207 9.05863 13 ft 0 kts 323°